Terminal Aerodrome Forecast
Issued by NWS

Home | Current Version | Previous Version | Text Only | Print | Product List | Glossary Off
Versions: 1 2 3 4 5 6 7 8 9 10 11 12 13 14 15 16 17 18 19 20 21 22

074
FTUS43 KICT 261311 AAA
TAFRSL
TAF AMD
KRSL 261311Z 2613/2712 07007KT P6SM SCT018 BKN035
      TEMPO 2613/2616 SCT008 BKN018 OVC025
     FM261600 17015G22KT P6SM SCT015 SCT150
     FM262000 15018G26KT P6SM VCTS BKN040CB
     FM262300 15016G24KT P6SM -SHRA VCTS BKN040CB
     FM270600 16012KT P6SM VCSH BKN080=

USA.gov is the U.S. government's official web portal to all federal, state and local government web resources and services.